2E0RGX-13 Weather Reports


time (UTC)temp
C
wind
direction
speed
KPH
gust
KPH
rain 1hr
cm
rain 24hr
cm
rain mn
cm
humidity
%
barometer
mb
20260507080349 11 128 3.2 4.8 0.00 0.00 0.00 75 1013.3
20260507075845 11 81 1.6 4.8 0.00 0.00 0.00 75 1013.4
20260507075341 11 143 4.8 6.4 0.00 0.00 0.00 75 1013.2
20260507074838 11 153 3.2 12.9 0.00 0.00 0.00 75 1013.2
20260507074334 11 88 1.6 4.8 0.00 0.00 0.00 74 1013.0
20260507073830 11 53 4.8 6.4 0.00 0.00 0.00 74 1013.2
20260507073326 11 124 4.8 6.4 0.00 0.00 0.00 74 1013.0
20260507072822 11 94 1.6 1.6 0.00 0.00 0.00 75 1013.2
20260507072318 10 111 1.6 6.4 0.00 0.00 0.00 76 1013.2
20260507071814 10 61 4.8 6.4 0.00 0.00 0.00 76 1013.2
20260507071310 10 65 3.2 4.8 0.00 0.00 0.00 75 1013.1
20260507070805 10 115 3.2 4.8 0.00 0.00 0.00 76 1012.9
20260507070301 10 7 3.2 4.8 0.00 0.00 0.00 77 1013.1
20260507065757 10 44 1.6 4.8 0.00 0.00 0.00 78 1013.0
20260507065253 10 20 3.2 6.4 0.00 0.00 0.00 78 1013.2
20260507064750 9 46 1.6 4.8 0.00 0.00 0.00 79 1013.2
20260507064246 10 73 3.2 3.2 0.00 0.00 0.00 80 1013.1
20260507063742 9 38 3.2 3.2 0.00 0.00 0.00 81 1013.2
20260507063238 8 16 3.2 3.2 0.00 0.00 0.00 82 1013.1
20260507062733 8 23 4.8 4.8 0.00 0.00 0.00 82 1012.8
20260507062229 8 43 1.6 3.2 0.00 0.00 0.00 82 1013.0
20260507061725 8 78 1.6 3.2 0.00 0.00 0.00 82 1012.9
20260507061221 8 15 3.2 6.4 0.00 0.00 0.00 82 1013.0
20260507060717 8 49 3.2 3.2 0.00 0.00 0.00 82 1012.9
20260507060213 8 54 1.6 3.2 0.00 0.00 0.00 82 1012.7
20260507055709 8 31 3.2 4.8 0.00 0.00 0.00 82 1012.9
20260507055206 8 298 1.6 1.6 0.00 0.00 0.00 82 1012.8
20260507054701 8 47 3.2 3.2 0.00 0.00 0.00 82 1012.7
20260507054157 8 10 1.6 3.2 0.00 0.00 0.00 82 1012.6
20260507053653 8 53 1.6 3.2 0.00 0.00 0.00 82 1012.7
20260507053149 8 34 0.0 3.2 0.00 0.00 0.00 82 1012.5
20260507052645 8 32 1.6 3.2 0.00 0.00 0.00 82 1012.7
20260507052141 8 52 1.6 3.2 0.00 0.00 0.00 82 1012.5
20260507051637 8 35 4.8 4.8 0.00 0.00 0.00 81 1012.5
20260507051133 8 28 3.2 3.2 0.00 0.00 0.00 81 1012.5
20260507050629 8 39 3.2 4.8 0.00 0.00 0.00 81 1012.4
20260507050125 8 57 3.2 3.2 0.00 0.00 0.00 81 1012.6
20260507045621 8 35 3.2 4.8 0.00 0.00 0.00 81 1012.6
20260507045117 8 34 1.6 3.2 0.00 0.00 0.00 81 1012.3
20260507044613 8 62 1.6 4.8 0.00 0.00 0.00 81 1012.1
20260507044109 8 40 1.6 3.2 0.00 0.00 0.00 80 1012.3
20260507043605 8 54 3.2 3.2 0.00 0.00 0.00 80 1012.5
20260507043101 8 45 0.0 3.2 0.00 0.00 0.00 80 1012.4
20260507042557 8 56 1.6 1.6 0.00 0.00 0.00 80 1012.4
20260507042053 8 48 3.2 3.2 0.00 0.00 0.00 80 1012.4
20260507041549 8 48 1.6 3.2 0.00 0.00 0.00 80 1012.2
20260507041045 8 68 6.4 6.4 0.00 0.00 0.00 80 1012.5
20260507040541 8 77 1.6 6.4 0.00 0.00 0.00 80 1012.3
20260507040037 8 32 6.4 9.7 0.00 0.00 0.00 81 1012.4
20260507035533 8 62 6.4 9.7 0.00 0.00 0.00 81 1012.4
20260507035030 8 60 3.2 3.2 0.00 0.00 0.00 81 1012.4
20260507034526 8 34 4.8 6.4 0.00 0.00 0.00 82 1012.4
20260507034022 8 50 3.2 4.8 0.00 0.00 0.00 82 1012.2
20260507033518 8 3 3.2 4.8 0.00 0.00 0.00 82 1012.3
20260507033014 8 36 0.0 3.2 0.00 0.00 0.00 83 1012.3
20260507032510 8 16 1.6 6.4 0.00 0.00 0.00 83 1012.1
20260507032006 8 27 3.2 6.4 0.00 0.00 0.00 83 1012.4
20260507031502 8 38 6.4 9.7 0.00 0.00 0.00 84 1012.3
20260507030958 8 19 3.2 3.2 0.00 0.00 0.00 84 1012.1
20260507030454 8 57 0.0 3.2 0.00 0.00 0.00 84 1012.2
20260507025950 8 60 6.4 6.4 0.00 0.00 0.00 84 1012.3
20260507025446 9 62 0.0 3.2 0.00 0.00 0.00 84 1012.4
20260507024942 9 12 4.8 4.8 0.00 0.00 0.00 84 1012.1
20260507024437 9 35 1.6 3.2 0.00 0.00 0.00 84 1012.2
20260507023933 8 58 1.6 3.2 0.00 0.00 0.00 84 1011.9
20260507023429 8 68 1.6 3.2 0.00 0.00 0.00 84 1012.4
20260507022925 8 350 3.2 3.2 0.00 0.00 0.00 84 1012.2
20260507022422 8 336 3.2 4.8 0.00 0.00 0.00 84 1012.2
20260507021917 8 295 0.0 3.2 0.00 0.00 0.00 84 1011.9
20260507021413 8 343 1.6 4.8 0.00 0.00 0.00 85 1012.1
20260507020909 8 310 1.6 1.6 0.00 0.00 0.00 85 1012.0
20260507020405 8 319 0.0 1.6 0.00 0.00 0.00 85 1011.8
20260507015901 8 46 1.6 1.6 0.00 0.00 0.00 84 1011.9
20260507015357 8 64 0.0 0.0 0.00 0.00 0.00 84 1011.9
20260507014853 8 38 1.6 1.6 0.00 0.00 0.00 84 1011.9
20260507014349 8 348 1.6 3.2 0.00 0.00 0.00 84 1012.0
20260507013845 8 260 0.0 1.6 0.00 0.00 0.00 84 1012.0
20260507013341 8 0 0.0 1.6 0.00 0.00 0.00 84 1011.9
20260507012837 8 172 0.0 1.6 0.00 0.00 0.00 84 1012.0
20260507012333 8 274 0.0 1.6 0.00 0.00 0.00 84 1011.9
20260507011829 8 283 1.6 3.2 0.00 0.00 0.00 84 1011.8
20260507011325 8 290 0.0 1.6 0.00 0.00 0.00 84 1012.0
20260507010821 8 295 1.6 3.2 0.00 0.00 0.00 84 1011.9
20260507010317 8 279 0.0 3.2 0.00 0.00 0.00 84 1011.9
20260507005813 8 247 0.0 1.6 0.00 0.00 0.00 84 1012.0
20260507005309 8 55 0.0 1.6 0.00 0.00 0.00 84 1012.0
20260507004805 9 17 3.2 4.8 0.00 0.00 0.00 83 1011.9
20260507004301 9 268 0.0 1.6 0.00 0.00 0.00 83 1012.0
20260507003757 8 335 1.6 3.2 0.00 0.00 0.00 83 1012.2
20260507003253 8 303 1.6 3.2 0.00 0.00 0.00 83 1012.1
20260507002749 8 318 0.0 3.2 0.00 0.00 0.00 83 1011.9
20260507002245 9 356 0.0 1.6 0.00 0.00 0.00 83 1012.0
20260507001741 9 40 0.0 3.2 0.00 0.00 0.00 83 1012.1
20260507001237 9 282 1.6 3.2 0.00 0.00 0.00 83 1011.9
20260507000733 8 276 1.6 3.2 0.00 0.00 0.00 83 1012.0
20260507000229 9 277 1.6 1.6 0.00 0.00 0.00 83 1012.1
20260506235725 9 86 0.0 3.2 0.00 0.00 0.00 83 1012.0
20260506235221 9 292 0.0 1.6 0.00 0.00 0.00 83 1011.8
20260506234718 9 342 0.0 1.6 0.00 0.00 0.00 83 1011.9
20260506234214 9 326 0.0 3.2 0.00 0.00 0.00 82 1012.0
20260506233710 9 345 0.0 1.6 0.00 0.00 0.00 82 1011.8
20260506233206 9 274 0.0 1.6 0.00 0.00 0.00 82 1012.0
20260506232702 9 293 0.0 1.6 0.00 0.00 0.00 82 1011.8
20260506232158 9 277 0.0 1.6 0.00 0.00 0.00 82 1011.9
20260506231654 9 271 0.0 1.6 0.00 0.00 0.00 82 1011.7
20260506231150 9 318 1.6 3.2 0.00 0.00 0.00 82 1011.8
20260506230646 9 5 3.2 3.2 0.00 0.00 0.00 82 1011.8
20260506230142 9 338 1.6 3.2 0.00 0.00 0.00 81 1011.9
20260506225638 9 31 3.2 3.2 0.00 0.00 0.00 81 1011.9
20260506225133 9 355 0.0 3.2 0.00 0.00 0.00 81 1012.0
20260506224629 9 270 0.0 1.6 0.00 0.00 0.00 80 1012.0
20260506224125 9 287 0.0 0.0 0.00 0.00 0.00 80 1011.6
20260506223621 9 312 1.6 1.6 0.00 0.00 0.00 80 1011.7
20260506223117 9 44 3.2 6.4 0.00 0.00 0.00 80 1011.7
20260506222613 9 303 1.6 9.7 0.00 0.00 0.00 80 1011.7
20260506222109 9 266 0.0 3.2 0.00 0.00 0.00 80 1011.8
20260506221605 9 264 3.2 4.8 0.00 0.00 0.00 80 1011.7
20260506221101 9 290 3.2 6.4 0.00 0.00 0.00 79 1011.6
20260506220557 9 293 1.6 4.8 0.00 0.00 0.00 79 1011.9
20260506220053 9 35 0.0 3.2 0.00 0.00 0.00 79 1011.8
20260506215549 9 309 1.6 4.8 0.00 0.00 0.00 79 1011.5
20260506215045 10 306 4.8 9.7 0.00 0.00 0.00 78 1011.6
20260506214542 10 21 6.4 9.7 0.00 0.00 0.00 78 1011.6
20260506214037 10 210 1.6 3.2 0.00 0.00 0.00 77 1011.6
20260506213533 10 339 3.2 4.8 0.00 0.00 0.00 77 1011.5
20260506213029 10 317 1.6 3.2 0.00 0.00 0.00 76 1011.6
20260506212525 10 280 3.2 4.8 0.00 0.00 0.00 76 1011.6
20260506212021 10 339 1.6 6.4 0.00 0.00 0.00 76 1011.6
20260506211517 10 269 0.0 1.6 0.00 0.00 0.00 75 1011.6
20260506211013 10 318 1.6 4.8 0.00 0.00 0.00 74 1011.5
20260506210509 10 278 1.6 4.8 0.00 0.00 0.00 74 1011.6
20260506210005 10 43 1.6 4.8 0.00 0.00 0.00 74 1011.5
20260506205501 10 349 3.2 4.8 0.00 0.00 0.00 73 1011.4
20260506204958 10 299 1.6 9.7 0.00 0.00 0.00 73 1011.5
20260506204454 10 351 1.6 6.4 0.00 0.00 0.00 72 1011.3
20260506203950 10 245 3.2 11.3 0.00 0.00 0.00 72 1011.4
20260506203446 10 252 1.6 11.3 0.00 0.00 0.00 71 1011.3
20260506202942 10 275 3.2 4.8 0.00 0.00 0.00 70 1011.4
20260506202438 10 249 3.2 11.3 0.00 0.00 0.00 69 1011.5
20260506201934 11 300 4.8 11.3 0.00 0.00 0.00 68 1011.3
20260506201430 11 196 3.2 9.7 0.00 0.00 0.00 68 1011.5
20260506200926 11 309 1.6 3.2 0.00 0.00 0.00 67 1011.2
20260506200422 11 298 1.6 6.4 0.00 0.00 0.00 67 1011.3
20260506195918 11 257 1.6 3.2 0.00 0.00 0.00 67 1011.1
20260506195414 11 52 3.2 11.3 0.00 0.00 0.00 67 1010.8
20260506194910 11 305 3.2 4.8 0.00 0.00 0.00 68 1010.9
20260506194406 11 21 0.0 4.8 0.00 0.00 0.00 68 1010.8
20260506193902 11 270 6.4 9.7 0.00 0.00 0.00 67 1010.8
20260506193358 11 246 1.6 6.4 0.00 0.00 0.00 66 1010.6
20260506192853 11 317 3.2 3.2 0.00 0.00 0.00 65 1010.6
20260506192349 11 289 0.0 4.8 0.00 0.00 0.00 64 1010.7
20260506191845 11 51 3.2 12.9 0.00 0.00 0.00 64 1010.7
20260506191341 11 26 8.0 14.5 0.00 0.00 0.00 63 1010.6
20260506190837 11 13 1.6 9.7 0.00 0.00 0.00 63 1010.8
20260506190333 11 59 4.8 11.3 0.00 0.00 0.00 63 1010.6
20260506185829 11 173 0.0 1.6 0.00 0.00 0.00 63 1010.5
20260506185325 11 354 3.2 11.3 0.00 0.00 0.00 62 1010.4
20260506184822 12 249 0.0 1.6 0.00 0.00 0.00 62 1010.4
20260506184318 12 313 1.6 9.7 0.00 0.00 0.00 62 1010.5
20260506183813 12 260 1.6 4.8 0.00 0.00 0.00 62 1010.2
20260506183309 12 338 4.8 11.3 0.00 0.00 0.00 62 1010.2
20260506182805 12 356 3.2 6.4 0.00 0.00 0.00 61 1010.3
20260506182301 12 14 4.8 11.3 0.00 0.00 0.00 60 1010.3
20260506181757 12 0 6.4 9.7 0.00 0.00 0.00 61 1010.1
20260506181253 12 32 3.2 6.4 0.00 0.00 0.00 61 1010.0
20260506180749 12 7 6.4 16.1 0.00 0.00 0.00 62 1010.1
20260506180245 12 60 1.6 12.9 0.00 0.00 0.00 62 1010.1
20260506175741 12 349 3.2 11.3 0.00 0.00 0.00 62 1009.8
20260506175237 12 15 14.5 16.1 0.00 0.00 0.00 61 1009.8
20260506174734 12 2 4.8 11.3 0.00 0.00 0.00 61 1009.7
20260506174230 12 38 8.0 11.3 0.00 0.00 0.00 60 1009.8
20260506173726 12 13 9.7 12.9 0.00 0.00 0.00 60 1009.7
20260506173222 12 41 4.8 9.7 0.00 0.00 0.00 60 1009.7
20260506172718 12 78 3.2 6.4 0.00 0.00 0.00 59 1009.5
20260506172214 12 34 8.0 12.9 0.00 0.00 0.00 58 1009.6
20260506171710 12 21 3.2 4.8 0.00 0.00 0.00 56 1009.6
20260506171206 12 38 1.6 3.2 0.00 0.00 0.00 56 1009.9
20260506170702 12 268 1.6 3.2 0.00 0.00 0.00 56 1009.6
20260506170158 12 265 3.2 11.3 0.00 0.00 0.00 56 1009.6
20260506165654 12 359 1.6 4.8 0.00 0.00 0.00 56 1009.6
20260506165150 12 351 3.2 6.4 0.00 0.00 0.00 56 1009.5
20260506164646 12 81 3.2 9.7 0.00 0.00 0.00 56 1009.6
20260506164142 12 318 4.8 12.9 0.00 0.00 0.00 56 1009.5
20260506163638 12 277 6.4 9.7 0.00 0.00 0.00 56 1009.5
20260506163134 12 267 1.6 4.8 0.00 0.00 0.00 56 1009.6
20260506162630 12 302 3.2 12.9 0.00 0.00 0.00 57 1009.6
20260506162126 12 337 3.2 6.4 0.00 0.00 0.00 57 1009.7
20260506161622 13 12 4.8 11.3 0.00 0.00 0.00 56 1009.6
20260506161118 13 324 1.6 11.3 0.00 0.00 0.00 57 1009.4
20260506160614 12 348 6.4 11.3 0.00 0.00 0.00 57 1009.6
20260506160110 12 323 3.2 9.7 0.00 0.00 0.00 57 1010.0
20260506155606 13 328 4.8 4.8 0.00 0.00 0.00 56 1009.7
20260506155101 13 315 3.2 9.7 0.00 0.00 0.00 56 1009.6
20260506154557 12 285 1.6 4.8 0.00 0.00 0.00 56 1009.7
20260506154053 13 2 9.7 14.5 0.00 0.00 0.00 56 1009.7
20260506153549 13 334 6.4 6.4 0.00 0.00 0.00 56 1009.6
20260506153045 13 304 0.0 3.2 0.00 0.00 0.00 57 1009.7
20260506152541 13 105 3.2 6.4 0.00 0.00 0.00 58 1009.8
20260506152037 13 46 6.4 11.3 0.00 0.00 0.00 57 1009.7
20260506151533 13 234 0.0 4.8 0.00 0.00 0.00 57 1009.7
20260506151029 13 71 3.2 12.9 0.00 0.00 0.00 58 1009.9
20260506150525 13 239 1.6 6.4 0.00 0.00 0.00 58 1009.9
20260506150021 13 281 6.4 9.7 0.00 0.00 0.00 58 1009.8
20260506145517 13 321 3.2 6.4 0.00 0.00 0.00 59 1009.7
20260506145014 13 257 0.0 3.2 0.00 0.00 0.00 60 1009.6
20260506144510 13 319 1.6 6.4 0.00 0.00 0.00 60 1009.8
20260506144006 12 357 1.6 4.8 0.00 0.00 0.00 61 1009.9
20260506143502 12 255 3.2 9.7 0.00 0.00 0.00 61 1009.6
20260506142958 13 273 3.2 6.4 0.00 0.00 0.00 61 1009.5
20260506142454 12 294 3.2 4.8 0.00 0.00 0.00 62 1009.8
20260506141950 12 19 3.2 14.5 0.00 0.00 0.00 63 1009.8
20260506141446 12 31 6.4 11.3 0.00 0.00 0.00 63 1009.8
20260506140941 12 292 1.6 3.2 0.00 0.00 0.00 64 1009.9
20260506140437 12 101 0.0 4.8 0.00 0.00 0.00 66 1009.8
20260506135933 12 349 6.4 11.3 0.00 0.00 0.00 66 1010.0
20260506135429 11 272 1.6 4.8 0.00 0.00 0.00 67 1009.8
20260506134926 12 337 3.2 4.8 0.00 0.00 0.00 67 1010.0
20260506134421 12 320 3.2 6.4 0.00 0.00 0.00 68 1009.7
20260506133918 11 344 4.8 9.7 0.00 0.00 0.00 66 1009.9
20260506133413 11 0 4.8 12.9 0.00 0.00 0.00 66 1010.1
20260506132909 12 312 4.8 11.3 0.00 0.00 0.00 65 1010.0
20260506132405 12 142 3.2 12.9 0.00 0.00 0.00 65 1010.0
20260506131901 12 2 9.7 14.5 0.00 0.00 0.00 64 1009.7
20260506131357 12 28 1.6 11.3 0.00 0.00 0.00 63 1010.1
20260506130853 12 353 4.8 6.4 0.00 0.00 0.00 62 1010.0
20260506130349 12 322 3.2 6.4 0.00 0.00 0.00 63 1009.9
20260506125845 12 331 3.2 11.3 0.00 0.00 0.00 62 1009.8
20260506125341 12 261 3.2 4.8 0.00 0.00 0.00 64 1010.0
20260506124837 12 46 6.4 12.9 0.00 0.00 0.00 63 1010.0
20260506124333 12 326 11.3 16.1 0.00 0.00 0.00 64 1009.9
20260506123829 12 278 4.8 14.5 0.00 0.00 0.00 63 1009.8
20260506123325 12 242 8.0 16.1 0.00 0.00 0.00 62 1009.8
20260506122821 12 62 4.8 17.7 0.00 0.00 0.00 61 1009.8
20260506122317 13 238 8.0 22.5 0.00 0.00 0.00 59 1009.9
20260506121813 14 340 6.4 11.3 0.00 0.00 0.00 55 1009.7
20260506121309 13 307 3.2 11.3 0.00 0.00 0.00 57 1009.6
20260506120805 13 23 3.2 11.3 0.00 0.00 0.00 59 1009.8
20260506120301 13 284 3.2 6.4 0.00 0.00 0.00 58 1009.8
20260506115757 12 306 6.4 11.3 0.00 0.00 0.00 61 1009.9
20260506115253 12 324 4.8 9.7 0.00 0.00 0.00 62 1010.0
20260506114749 13 265 3.2 9.7 0.00 0.00 0.00 60 1009.8
20260506114245 13 301 3.2 9.7 0.00 0.00 0.00 60 1009.8
20260506113741 12 29 9.7 22.5 0.00 0.00 0.00 61 1009.8
20260506113237 12 354 9.7 12.9 0.00 0.00 0.00 62 1009.9
20260506112733 12 355 1.6 17.7 0.00 0.00 0.00 63 1009.9
20260506112229 12 344 12.9 20.9 0.00 0.00 0.00 61 1009.9
20260506111725 12 323 3.2 17.7 0.00 0.00 0.00 62 1009.9
20260506111221 12 23 1.6 11.3 0.00 0.00 0.00 61 1009.9
20260506110717 12 15 4.8 11.3 0.00 0.00 0.00 60 1009.6
20260506110213 12 268 3.2 14.5 0.00 0.00 0.00 62 1009.8
20260506105709 12 326 1.6 4.8 0.00 0.00 0.00 61 1009.8
20260506105205 12 13 3.2 6.4 0.00 0.00 0.00 61 1009.7
20260506104701 12 325 3.2 9.7 0.00 0.00 0.00 60 1010.2
20260506104157 13 57 9.7 14.5 0.00 0.00 0.00 57 1009.9
20260506103653 12 259 6.4 6.4 0.00 0.00 0.00 58 1009.9
20260506103149 12 11 6.4 20.9 0.00 0.00 0.00 59 1009.8
20260506102645 12 29 3.2 12.9 0.00 0.00 0.00 59 1009.8
20260506102141 12 281 6.4 12.9 0.00 0.00 0.00 58 1010.1
20260506101637 11 316 4.8 16.1 0.00 0.00 0.00 61 1009.9
20260506101133 11 70 4.8 11.3 0.00 0.00 0.00 60 1009.9
20260506100629 11 258 3.2 9.7 0.00 0.00 0.00 61 1009.8
20260506100125 11 25 9.7 20.9 0.00 0.00 0.00 62 1010.0
20260506095621 11 169 0.0 9.7 0.00 0.00 0.00 61 1010.0
20260506095118 11 251 1.6 14.5 0.00 0.00 0.00 60 1010.0
20260506094614 11 273 3.2 14.5 0.00 0.00 0.00 59 1010.1
20260506094110 12 309 3.2 4.8 0.00 0.00 0.00 60 1010.1
20260506093606 12 233 3.2 12.9 0.00 0.00 0.00 60 1010.1
20260506093102 11 47 12.9 17.7 0.00 0.00 0.00 60 1010.0
20260506092558 11 9 4.8 6.4 0.00 0.00 0.00 60 1010.1
20260506092054 11 157 3.2 9.7 0.00 0.00 0.00 59 1009.8
20260506091550 11 175 3.2 14.5 0.00 0.00 0.00 61 1009.8
20260506091046 11 338 9.7 12.9 0.00 0.00 0.00 60 1009.8
20260506090542 11 137 8.0 14.5 0.00 0.00 0.00 62 1009.9
20260506090038 11 21 8.0 11.3 0.00 0.00 0.00 62 1009.8
20260506085534 11 295 1.6 16.1 0.00 0.00 0.00 63 1009.9
20260506085030 11 64 1.6 9.7 0.00 0.00 0.00 65 1009.6
20260506084526 11 314 9.7 16.1 0.00 0.00 0.00 64 1009.7
20260506084022 11 19 12.9 14.5 0.00 0.00 0.00 65 1010.0
20260506083518 10 20 3.2 12.9 0.00 0.00 0.00 66 1009.9
20260506083014 10 67 8.0 12.9 0.00 0.00 0.00 67 1009.6
20260506082510 10 32 9.7 14.5 0.00 0.00 0.00 68 1009.7
20260506082006 10 20 6.4 9.7 0.00 0.00 0.00 67 1009.8
20260506081502 10 288 3.2 16.1 0.00 0.00 0.00 67 1009.7
20260506080958 11 258 1.6 6.4 0.00 0.00 0.00 68 1009.7